EW9945 Weather Reports


time (UTC)temp
F
wind
direction
speed
knots
gust
knots
rain 1hr
in
rain 24hr
in
rain mn
in
humidity
%
barometer
mb
20260507170042 52 298 4.3 10.4 0.00 0.12 0.01 45 1010.7
20260507164555 53 330 7.0 12.2 0.00 0.12 0.01 43 1010.8
20260507163039 53 319 7.0 10.4 0.00 0.12 0.01 46 1011.0
20260507161638 51 317 4.3 9.6 0.00 0.12 0.01 48 1011.3
20260507160038 52 294 7.0 12.2 0.00 0.12 0.01 46 1011.3
20260507154537 54 306 7.0 14.8 0.00 0.12 0.01 46 1011.3
20260507153032 52 304 1.7 11.3 0.00 0.12 0.01 49 1011.5
20260507151630 51 323 2.6 10.4 0.00 0.12 0.01 47 1011.6
20260507150029 51 257 0.0 4.3 0.00 0.12 0.01 54 1011.9
20260507144528 51 317 2.6 8.7 0.00 0.12 0.01 51 1011.9
20260507143043 50 297 2.6 13.9 0.00 0.12 0.01 55 1012.2
20260507141626 50 309 3.5 7.0 0.00 0.12 0.01 55 1012.2
20260507140025 50 275 0.0 5.2 0.00 0.14 0.01 59 1012.2
20260507134523 50 227 1.7 6.1 0.00 0.14 0.01 60 1012.3
20260507133021 50 295 1.7 4.3 0.00 0.14 0.01 64 1012.5
20260507131619 48 302 0.0 3.5 0.00 0.14 0.01 70 1012.6
20260507130031 47 301 0.9 4.3 0.00 0.22 0.01 68 1012.5
20260507124518 47 295 0.0 3.5 0.00 0.22 0.01 72 1012.4
20260507123015 47 225 0.0 0.0 0.00 0.22 0.01 78 1012.5
20260507121612 45 221 0.0 0.0 0.01 0.22 0.01 79 1012.6
20260507120008 44 220 0.0 0.0 0.01 0.28 0.01 82 1012.6
20260507114503 42 220 0.0 0.0 0.01 0.28 0.01 86 1012.4
20260507113101 41 220 0.0 0.0 0.01 0.28 0.01 87 1012.5
20260507111558 39 220 0.0 0.0 0.00 0.27 0.00 92 1012.7
20260507110056 37 220 0.0 0.0 0.00 0.30 0.00 92 1012.5
20260507104558 36 220 0.0 0.0 0.00 0.30 0.00 91 1012.4
20260507103052 36 220 0.0 0.0 0.00 0.30 0.00 91 1012.2
20260507101551 36 220 0.0 0.0 0.00 0.30 0.00 91 1012.0
20260507100056 36 220 0.0 0.0 0.00 0.35 0.00 91 1012.0
20260507094548 36 291 0.0 0.0 0.00 0.35 0.00 90 1011.8
20260507093044 37 291 0.0 0.0 0.00 0.35 0.00 90 1011.7
20260507091544 37 291 0.0 0.0 0.00 0.35 0.00 89 1011.9
20260507090049 38 291 0.0 0.0 0.00 0.39 0.35 89 1012.0
20260507084548 38 291 0.0 0.0 0.00 0.39 0.35 88 1012.0
20260507083037 39 291 0.0 0.0 0.00 0.39 0.35 88 1012.0
20260507081536 39 291 0.0 0.0 0.00 0.39 0.35 85 1012.0
20260507080035 39 291 0.0 0.0 0.00 0.44 0.35 84 1011.9
20260507074532 41 291 0.0 0.0 0.00 0.44 0.35 81 1011.9
20260507073033 41 291 0.0 0.0 0.00 0.44 0.35 80 1011.9
20260507071535 41 291 0.0 0.0 0.00 0.44 0.35 81 1011.8
20260507070033 41 291 0.0 2.6 0.00 0.44 0.35 81 1011.6
20260507064544 41 291 0.0 0.0 0.00 0.44 0.35 81 1011.7
20260507063030 42 291 0.0 0.0 0.00 0.44 0.35 80 1012.0
20260507061529 42 291 0.0 0.0 0.00 0.44 0.35 79 1012.0
20260507060027 42 291 0.0 3.5 0.00 0.44 0.35 80 1011.7
20260507054525 42 291 0.0 0.0 0.00 0.44 0.35 82 1012.0
20260507053025 42 292 0.0 3.5 0.00 0.44 0.35 83 1011.9
20260507051524 42 292 0.0 0.9 0.00 0.44 0.35 84 1011.5
20260507050035 43 292 0.0 2.6 0.00 0.44 0.35 84 1011.8
20260507044520 43 292 1.7 6.1 0.00 0.44 0.35 86 1012.1
20260507043017 44 295 1.7 6.1 0.00 0.44 0.35 88 1011.9
20260507041523 44 290 0.9 3.5 0.00 0.44 0.35 89 1011.8
20260507040011 45 290 0.0 0.0 0.00 0.44 0.35 88 1011.5
20260507034512 45 290 0.0 2.6 0.00 0.44 0.35 87 1011.2
20260507033010 45 289 0.0 4.3 0.00 0.44 0.35 87 1011.4
20260507031510 45 291 0.0 3.5 0.00 0.44 0.35 88 1011.2
20260507030017 45 312 0.0 0.9 0.00 0.44 0.35 89 1010.9
20260507024514 45 315 2.6 4.3 0.00 0.44 0.35 90 1011.1
20260507023007 46 328 0.0 0.0 0.00 0.44 0.35 91 1011.1
20260507021507 46 328 0.0 0.9 0.00 0.44 0.35 91 1011.0
20260507020005 46 328 0.0 0.0 0.00 0.44 0.35 92 1011.4
20260507014511 46 328 0.0 0.0 0.00 0.44 0.35 92 1011.4
20260507013011 46 328 0.0 0.0 0.00 0.44 0.35 92 1011.2
20260507011505 46 328 0.0 0.0 0.00 0.44 0.35 92 1011.5
20260507010007 46 328 0.0 0.0 0.00 0.44 0.35 92 1011.4
20260507004502 46 328 0.0 0.0 0.00 0.44 0.35 92 1010.8
20260507003001 46 328 0.0 0.0 0.00 0.44 0.35 91 1010.8
20260507001611 46 328 0.0 0.0 0.00 0.44 0.35 91 1010.3
20260507000059 47 328 0.0 0.0 0.00 0.44 0.35 91 1010.1
20260506234600 47 328 0.0 0.0 0.00 0.44 0.35 91 1010.2
20260506233059 47 328 0.0 0.0 0.00 0.44 0.35 91 1009.9
20260506231609 47 328 0.0 0.0 0.00 0.44 0.35 91 1009.8
20260506230111 47 328 0.0 0.0 0.00 0.44 0.35 90 1009.8
20260506224555 47 328 0.0 0.0 0.00 0.44 0.35 91 1009.8
20260506223053 47 328 0.0 0.0 0.00 0.44 0.35 91 1009.5
20260506221610 47 328 0.0 0.9 0.00 0.44 0.35 91 1009.5
20260506220108 47 328 0.0 0.0 0.00 0.44 0.35 91 1009.3
20260506214551 47 328 2.6 6.1 0.00 0.44 0.35 90 1009.2
20260506213105 48 345 0.9 3.5 0.00 0.44 0.35 90 1008.9
20260506211548 48 350 0.0 3.5 0.00 0.44 0.35 89 1008.7
20260506210054 48 350 0.0 4.3 0.00 0.47 0.35 89 1008.6
20260506204546 48 342 1.7 5.2 0.00 0.47 0.35 90 1008.4
20260506203045 48 344 0.0 2.6 0.00 0.47 0.35 90 1008.4
20260506201547 48 344 0.9 6.1 0.00 0.47 0.35 90 1008.1
20260506200043 48 333 1.7 7.8 0.00 0.47 0.35 90 1007.7
20260506194543 48 317 0.9 7.8 0.00 0.47 0.35 90 1007.8
20260506193041 48 5 0.0 7.0 0.00 0.47 0.35 90 1007.6
20260506191540 48 355 0.9 3.5 0.00 0.47 0.35 91 1007.4
20260506190040 47 22 0.0 5.2 0.01 0.54 0.35 92 1007.3
20260506184542 47 9 2.6 8.7 0.01 0.54 0.35 92 1007.3
20260506183039 46 325 5.2 10.4 0.02 0.54 0.35 92 1007.3
20260506181539 46 342 2.6 6.1 0.03 0.54 0.35 92 1007.1
20260506180039 46 339 0.9 6.1 0.02 0.53 0.34 92 1006.8
20260506174536 46 309 4.3 7.8 0.07 0.53 0.34 92 1006.6
20260506173031 47 55 0.0 0.0 0.09 0.52 0.33 92 1006.3
20260506171539 46 55 0.0 0.0 0.08 0.51 0.32 92 1006.1